| time (UTC) | temp F | wind direction | speed MPH | gust MPH | rain 1hr in | rain 24hr in | rain mn in | humidity % | barometer mb |
| 20260906224043 | 80 | 161 | 0.0 | 0.0 | 0.00 | 0.48 | 0.48 | 90 | 1014.6 |
| 20260906223538 | 79 | 176 | 0.0 | 1.0 | 0.00 | 0.48 | 0.48 | 90 | 1014.6 |
| 20260906223037 | 79 | 166 | 0.0 | 0.0 | 0.00 | 0.48 | 0.48 | 90 | 1014.4 |
| 20260906222536 | 80 | 167 | 0.0 | 0.0 | 0.00 | 0.48 | 0.48 | 89 | 1014.8 |
| 20260906222034 | 80 | 180 | 1.0 | 1.0 | 0.00 | 0.48 | 0.48 | 89 | 1015.2 |
| 20260906221533 | 80 | 169 | 1.0 | 1.0 | 0.00 | 0.48 | 0.48 | 89 | 1015.2 |
| 20260906221028 | 80 | 169 | 0.0 | 0.0 | 0.00 | 0.48 | 0.48 | 89 | 1015.0 |
| 20260906220523 | 80 | 167 | 0.0 | 0.0 | 0.00 | 0.48 | 0.48 | 90 | 1014.9 |
| 20260906220019 | 81 | 183 | 0.0 | 1.0 | 0.00 | 0.48 | 0.48 | 90 | 1014.8 |
| 20260906215518 | 81 | 163 | 0.0 | 0.0 | 0.00 | 0.48 | 0.48 | 90 | 1014.7 |
| 20260906215016 | 80 | 157 | 0.0 | 0.0 | 0.00 | 0.48 | 0.48 | 90 | 1014.4 |
| 20260906214514 | 80 | 166 | 1.0 | 1.0 | 0.00 | 0.48 | 0.48 | 90 | 1013.9 |
| 20260906214015 | 80 | 163 | 0.0 | 1.0 | 0.00 | 0.48 | 0.48 | 90 | 1013.6 |
| 20260906213514 | 81 | 167 | 1.0 | 1.0 | 0.00 | 0.48 | 0.48 | 90 | 1013.4 |
| 20260906213009 | 81 | 165 | 0.0 | 0.0 | 0.00 | 0.48 | 0.48 | 91 | 1013.4 |
| 20260906212501 | 81 | 160 | 0.0 | 0.0 | 0.00 | 0.48 | 0.48 | 91 | 1013.3 |
| 20260906211957 | 81 | 157 | 0.0 | 0.0 | 0.00 | 0.48 | 0.48 | 91 | 1013.2 |
| 20260906211452 | 81 | 164 | 0.0 | 0.0 | 0.00 | 0.48 | 0.48 | 91 | 1013.5 |
| 20260906210948 | 81 | 176 | 1.0 | 1.0 | 0.00 | 0.48 | 0.48 | 91 | 1013.7 |
| 20260906210443 | 81 | 150 | 0.0 | 0.0 | 0.00 | 0.48 | 0.48 | 91 | 1013.2 |
| 20260906205942 | 81 | 168 | 1.0 | 1.0 | 0.00 | 0.48 | 0.48 | 91 | 1013.8 |
| 20260906205438 | 81 | 147 | 1.0 | 1.0 | 0.00 | 0.48 | 0.48 | 91 | 1013.5 |
| 20260906204934 | 81 | 184 | 1.0 | 1.0 | 0.00 | 0.48 | 0.48 | 92 | 1013.5 |
| 20260906204434 | 81 | 148 | 0.0 | 0.0 | 0.07 | 0.48 | 0.48 | 93 | 1013.6 |
| 20260906203932 | 81 | 147 | 0.0 | 0.0 | 0.07 | 0.48 | 0.48 | 93 | 1013.4 |
| 20260906203428 | 80 | 146 | 0.0 | 0.0 | 0.00 | 0.47 | 0.47 | 93 | 1014.0 |
| 20260906202925 | 80 | 160 | 0.0 | 0.0 | 0.00 | 0.47 | 0.47 | 93 | 1014.2 |
| 20260906202424 | 80 | 159 | 0.0 | 0.0 | 0.00 | 0.47 | 0.47 | 93 | 1014.4 |
| 20260906201920 | 80 | 180 | 0.0 | 0.0 | 0.00 | 0.47 | 0.47 | 94 | 1014.7 |
| 20260906201413 | 80 | 164 | 0.0 | 0.0 | 0.00 | 0.47 | 0.47 | 94 | 1014.6 |
| 20260906200909 | 80 | 150 | 0.0 | 0.0 | 0.00 | 0.47 | 0.47 | 94 | 1014.7 |
| 20260906200400 | 80 | 155 | 0.0 | 0.0 | 0.00 | 0.47 | 0.47 | 94 | 1014.8 |
| 20260906195900 | 80 | 164 | 0.0 | 0.0 | 0.00 | 0.47 | 0.47 | 94 | 1014.9 |
| 20260906195356 | 80 | 156 | 0.0 | 0.0 | 0.00 | 0.47 | 0.47 | 93 | 1014.9 |
| 20260906194852 | 80 | 157 | 0.0 | 0.0 | 0.00 | 0.47 | 0.47 | 93 | 1015.0 |
| 20260906194348 | 80 | 158 | 0.0 | 0.0 | 0.00 | 0.47 | 0.47 | 93 | 1015.2 |
| 20260906193842 | 80 | 191 | 0.0 | 0.0 | 0.00 | 0.47 | 0.47 | 93 | 1015.2 |
| 20260906193337 | 79 | 164 | 0.0 | 0.0 | 0.00 | 0.47 | 0.47 | 93 | 1015.3 |
| 20260906192833 | 79 | 180 | 1.0 | 1.0 | 0.00 | 0.47 | 0.47 | 93 | 1015.2 |
| 20260906192327 | 79 | 175 | 1.0 | 1.0 | 0.00 | 0.47 | 0.47 | 92 | 1015.0 |
| 20260906191826 | 80 | 151 | 0.0 | 0.0 | 0.05 | 0.47 | 0.47 | 92 | 1015.1 |
| 20260906191321 | 81 | 168 | 0.0 | 0.0 | 0.17 | 0.47 | 0.47 | 92 | 1015.1 |
| 20260906190816 | 80 | 143 | 0.0 | 0.0 | 0.42 | 0.45 | 0.45 | 91 | 1015.5 |
| 20260906190315 | 80 | 151 | 0.0 | 0.0 | 1.61 | 0.43 | 0.43 | 90 | 1015.2 |
| 20260906185815 | 80 | 152 | 0.0 | 0.0 | 1.84 | 0.36 | 0.36 | 90 | 1015.2 |
| 20260906185314 | 82 | 160 | 0.0 | 0.0 | 0.73 | 0.13 | 0.13 | 89 | 1015.1 |
| 20260906184809 | 83 | 197 | 1.0 | 2.0 | 0.31 | 0.05 | 0.05 | 86 | 1015.3 |
| 20260906184304 | 85 | 180 | 1.0 | 1.0 | 0.00 | 0.00 | 0.00 | 82 | 1015.2 |
| 20260906183759 | 86 | 145 | 0.0 | 0.0 | 0.00 | 0.00 | 0.00 | 80 | 1014.9 |
| 20260906183256 | 86 | 133 | 1.0 | 1.0 | 0.00 | 0.00 | 0.00 | 81 | 1015.0 |
| 20260906182755 | 87 | 134 | 1.0 | 1.0 | 0.00 | 0.00 | 0.00 | 80 | 1015.0 |
| 20260906182251 | 89 | 138 | 0.0 | 0.0 | 0.00 | 0.00 | 0.00 | 78 | 1015.0 |
| 20260906181746 | 89 | 128 | 0.0 | 0.0 | 0.00 | 0.00 | 0.00 | 77 | 1015.2 |
| 20260906181242 | 90 | 86 | 3.0 | 5.0 | 0.00 | 0.00 | 0.00 | 76 | 1015.3 |
| 20260906180737 | 89 | 141 | 1.0 | 1.0 | 0.00 | 0.00 | 0.00 | 77 | 1015.3 |
| 20260906180232 | 88 | 117 | 3.0 | 3.0 | 0.00 | 0.00 | 0.00 | 78 | 1015.4 |
| 20260906175729 | 90 | 90 | 2.0 | 2.0 | 0.00 | 0.00 | 0.00 | 78 | 1015.4 |
| 20260906175225 | 91 | 127 | 2.0 | 2.0 | 0.00 | 0.00 | 0.00 | 75 | 1015.3 |
| 20260906174723 | 94 | 140 | 0.0 | 1.0 | 0.00 | 0.00 | 0.00 | 72 | 1015.3 |
| 20260906174218 | 93 | 138 | 0.0 | 0.0 | 0.00 | 0.00 | 0.00 | 74 | 1015.1 |
| 20260906173713 | 93 | 178 | 0.0 | 0.0 | 0.00 | 0.00 | 0.00 | 67 | 1015.3 |
| 20260906173209 | 92 | 172 | 1.0 | 2.0 | 0.00 | 0.00 | 0.00 | 69 | 1015.2 |
| 20260906172703 | 91 | 179 | 1.0 | 2.0 | 0.00 | 0.00 | 0.00 | 71 | 1015.4 |
| 20260906172158 | 92 | 171 | 0.0 | 0.0 | 0.00 | 0.00 | 0.00 | 72 | 1015.4 |
| 20260906171658 | 92 | 167 | 0.0 | 0.0 | 0.00 | 0.00 | 0.00 | 72 | 1015.4 |
| 20260906171154 | 93 | 204 | 0.0 | 0.0 | 0.00 | 0.00 | 0.00 | 69 | 1015.4 |
| 20260906170650 | 92 | 186 | 1.0 | 1.0 | 0.00 | 0.00 | 0.00 | 68 | 1015.6 |
| 20260906170149 | 91 | 185 | 2.0 | 2.0 | 0.00 | 0.00 | 0.00 | 72 | 1015.8 |
| 20260906165646 | 91 | 209 | 0.0 | 1.0 | 0.00 | 0.00 | 0.00 | 72 | 1015.8 |
| 20260906165141 | 92 | 195 | 0.0 | 0.0 | 0.00 | 0.00 | 0.00 | 70 | 1015.9 |
| 20260906164639 | 91 | 196 | 1.0 | 1.0 | 0.00 | 0.00 | 0.00 | 72 | 1016.0 |
| 20260906164135 | 92 | 187 | 2.0 | 3.0 | 0.00 | 0.00 | 0.00 | 71 | 1015.9 |
| 20260906163631 | 91 | 165 | 0.0 | 0.0 | 0.00 | 0.00 | 0.00 | 70 | 1016.0 |
| 20260906163127 | 91 | 189 | 2.0 | 3.0 | 0.00 | 0.00 | 0.00 | 70 | 1016.0 |
| 20260906162624 | 90 | 165 | 0.0 | 0.0 | 0.00 | 0.00 | 0.00 | 72 | 1016.1 |
| 20260906162118 | 91 | 173 | 1.0 | 1.0 | 0.00 | 0.00 | 0.00 | 73 | 1016.0 |
| 20260906161618 | 92 | 173 | 0.0 | 0.0 | 0.00 | 0.00 | 0.00 | 71 | 1016.1 |
| 20260906161117 | 91 | 169 | 1.0 | 1.0 | 0.00 | 0.00 | 0.00 | 71 | 1016.2 |
| 20260906160616 | 90 | 170 | 1.0 | 1.0 | 0.00 | 0.00 | 0.00 | 72 | 1016.0 |
| 20260906160115 | 90 | 191 | 2.0 | 3.0 | 0.00 | 0.00 | 0.00 | 72 | 1016.2 |
| 20260906155613 | 90 | 203 | 3.0 | 3.0 | 0.00 | 0.00 | 0.00 | 72 | 1016.1 |
| 20260906155109 | 90 | 195 | 3.0 | 3.0 | 0.00 | 0.00 | 0.00 | 74 | 1016.1 |
| 20260906154604 | 89 | 174 | 0.0 | 0.0 | 0.00 | 0.00 | 0.00 | 73 | 1016.1 |
| 20260906154103 | 90 | 168 | 0.0 | 0.0 | 0.00 | 0.00 | 0.00 | 73 | 1016.3 |
| 20260906153602 | 90 | 192 | 0.0 | 1.0 | 0.00 | 0.00 | 0.00 | 73 | 1016.2 |
| 20260906153057 | 89 | 174 | 1.0 | 2.0 | 0.00 | 0.00 | 0.00 | 74 | 1016.3 |
| 20260906152557 | 89 | 165 | 1.0 | 2.0 | 0.00 | 0.00 | 0.00 | 75 | 1016.3 |
| 20260906152051 | 89 | 226 | 3.0 | 7.0 | 0.00 | 0.00 | 0.00 | 75 | 1016.2 |
| 20260906151546 | 89 | 145 | 1.0 | 2.0 | 0.00 | 0.00 | 0.00 | 75 | 1016.4 |
| 20260906151042 | 89 | 199 | 3.0 | 5.0 | 0.00 | 0.00 | 0.00 | 74 | 1016.4 |
| 20260906150537 | 89 | 185 | 2.0 | 2.0 | 0.00 | 0.00 | 0.00 | 75 | 1016.3 |
| 20260906150032 | 88 | 206 | 2.0 | 2.0 | 0.00 | 0.00 | 0.00 | 75 | 1016.2 |
| 20260906145531 | 88 | 149 | 1.0 | 2.0 | 0.00 | 0.00 | 0.00 | 76 | 1016.4 |
| 20260906145026 | 88 | 206 | 2.0 | 2.0 | 0.00 | 0.00 | 0.00 | 78 | 1016.4 |
| 20260906144520 | 88 | 69 | 2.0 | 2.0 | 0.00 | 0.00 | 0.00 | 77 | 1016.4 |
| 20260906144016 | 88 | 182 | 3.0 | 3.0 | 0.00 | 0.00 | 0.00 | 77 | 1016.3 |
| 20260906143511 | 88 | 249 | 3.0 | 3.0 | 0.00 | 0.00 | 0.00 | 76 | 1016.5 |
| 20260906143007 | 87 | 222 | 2.0 | 3.0 | 0.00 | 0.00 | 0.00 | 77 | 1016.4 |
| 20260906142501 | 87 | 226 | 3.0 | 5.0 | 0.00 | 0.00 | 0.00 | 78 | 1016.3 |
| 20260906141956 | 88 | 215 | 1.0 | 1.0 | 0.00 | 0.00 | 0.00 | 77 | 1016.4 |
| 20260906141455 | 87 | 185 | 2.0 | 2.0 | 0.00 | 0.00 | 0.00 | 79 | 1016.5 |
| 20260906140950 | 87 | 196 | 1.0 | 2.0 | 0.00 | 0.00 | 0.00 | 79 | 1016.3 |
| 20260906140445 | 86 | 181 | 1.0 | 2.0 | 0.00 | 0.00 | 0.00 | 80 | 1016.5 |
| 20260906135943 | 87 | 298 | 3.0 | 3.0 | 0.00 | 0.00 | 0.00 | 80 | 1016.5 |
| 20260906135442 | 86 | 158 | 2.0 | 3.0 | 0.00 | 0.00 | 0.00 | 81 | 1016.3 |
| 20260906134937 | 86 | 182 | 1.0 | 1.0 | 0.00 | 0.00 | 0.00 | 81 | 1016.4 |
| 20260906134432 | 85 | 169 | 1.0 | 2.0 | 0.00 | 0.00 | 0.00 | 82 | 1016.4 |
| 20260906133927 | 85 | 194 | 2.0 | 2.0 | 0.00 | 0.00 | 0.00 | 83 | 1016.4 |
| 20260906133423 | 85 | 326 | 1.0 | 2.0 | 0.00 | 0.00 | 0.00 | 84 | 1016.5 |
| 20260906132919 | 85 | 189 | 2.0 | 3.0 | 0.00 | 0.00 | 0.00 | 85 | 1016.8 |
| 20260906132414 | 84 | 163 | 0.0 | 1.0 | 0.00 | 0.00 | 0.00 | 85 | 1016.8 |
| 20260906131909 | 84 | 176 | 2.0 | 2.0 | 0.00 | 0.00 | 0.00 | 86 | 1016.6 |
| 20260906131405 | 84 | 164 | 1.0 | 1.0 | 0.00 | 0.00 | 0.00 | 86 | 1016.8 |
| 20260906130901 | 83 | 193 | 1.0 | 1.0 | 0.00 | 0.00 | 0.00 | 86 | 1016.6 |
| 20260906130359 | 83 | 237 | 2.0 | 2.0 | 0.00 | 0.00 | 0.00 | 87 | 1016.5 |
| 20260906125859 | 83 | 161 | 1.0 | 1.0 | 0.00 | 0.00 | 0.00 | 87 | 1016.5 |
| 20260906125356 | 82 | 198 | 1.0 | 1.0 | 0.00 | 0.00 | 0.00 | 88 | 1016.5 |
| 20260906124851 | 81 | 188 | 1.0 | 1.0 | 0.00 | 0.00 | 0.00 | 90 | 1016.4 |
| 20260906124347 | 81 | 170 | 1.0 | 1.0 | 0.00 | 0.00 | 0.00 | 91 | 1016.5 |
| 20260906123846 | 80 | 157 | 0.0 | 0.0 | 0.00 | 0.00 | 0.00 | 92 | 1016.6 |
| 20260906123341 | 80 | 210 | 2.0 | 2.0 | 0.00 | 0.00 | 0.00 | 93 | 1016.7 |
| 20260906122841 | 79 | 178 | 0.0 | 0.0 | 0.00 | 0.00 | 0.00 | 94 | 1016.4 |
| 20260906122336 | 79 | 170 | 1.0 | 1.0 | 0.00 | 0.00 | 0.00 | 94 | 1016.5 |
| 20260906121833 | 78 | 164 | 0.0 | 0.0 | 0.00 | 0.00 | 0.00 | 95 | 1016.5 |
| 20260906121328 | 78 | 170 | 0.0 | 0.0 | 0.00 | 0.00 | 0.00 | 95 | 1016.6 |
| 20260906120824 | 77 | 194 | 1.0 | 1.0 | 0.00 | 0.00 | 0.00 | 95 | 1016.5 |
| 20260906120320 | 77 | 168 | 0.0 | 0.0 | 0.00 | 0.00 | 0.00 | 95 | 1016.6 |
| 20260906115816 | 77 | 170 | 1.0 | 1.0 | 0.00 | 0.00 | 0.00 | 95 | 1016.6 |
| 20260906115311 | 77 | 167 | 0.0 | 0.0 | 0.00 | 0.00 | 0.00 | 95 | 1016.3 |
| 20260906114810 | 76 | 175 | 1.0 | 1.0 | 0.00 | 0.00 | 0.00 | 95 | 1016.6 |
| 20260906114305 | 76 | 168 | 0.0 | 0.0 | 0.00 | 0.00 | 0.00 | 95 | 1016.2 |
| 20260906113800 | 76 | 170 | 0.0 | 0.0 | 0.00 | 0.00 | 0.00 | 95 | 1016.3 |
| 20260906113300 | 76 | 168 | 0.0 | 0.0 | 0.00 | 0.00 | 0.00 | 95 | 1016.0 |
| 20260906112755 | 76 | 168 | 0.0 | 0.0 | 0.00 | 0.00 | 0.00 | 95 | 1016.2 |
| 20260906112251 | 75 | 168 | 0.0 | 0.0 | 0.00 | 0.00 | 0.00 | 95 | 1015.9 |
| 20260906111751 | 75 | 169 | 0.0 | 0.0 | 0.00 | 0.00 | 0.00 | 95 | 1015.9 |
| 20260906111250 | 75 | 168 | 0.0 | 0.0 | 0.00 | 0.00 | 0.00 | 95 | 1016.0 |
| 20260906110745 | 75 | 168 | 0.0 | 0.0 | 0.00 | 0.00 | 0.00 | 95 | 1016.0 |
| 20260906110241 | 75 | 168 | 0.0 | 0.0 | 0.00 | 0.00 | 0.00 | 95 | 1015.8 |
| 20260906105740 | 75 | 168 | 0.0 | 0.0 | 0.00 | 0.00 | 0.00 | 95 | 1015.9 |
| 20260906105236 | 75 | 168 | 0.0 | 0.0 | 0.00 | 0.00 | 0.00 | 95 | 1016.0 |
| 20260906104731 | 75 | 168 | 0.0 | 0.0 | 0.00 | 0.00 | 0.00 | 95 | 1016.0 |
| 20260906104230 | 76 | 168 | 0.0 | 0.0 | 0.00 | 0.00 | 0.00 | 95 | 1015.8 |
| 20260906103728 | 76 | 167 | 0.0 | 0.0 | 0.00 | 0.00 | 0.00 | 95 | 1015.6 |
| 20260906103222 | 75 | 168 | 0.0 | 0.0 | 0.00 | 0.00 | 0.00 | 95 | 1015.7 |
| 20260906102718 | 75 | 167 | 0.0 | 0.0 | 0.00 | 0.00 | 0.00 | 95 | 1015.9 |
| 20260906102217 | 76 | 168 | 0.0 | 0.0 | 0.00 | 0.00 | 0.00 | 95 | 1015.8 |
| 20260906101712 | 76 | 168 | 0.0 | 0.0 | 0.00 | 0.00 | 0.00 | 95 | 1015.7 |
| 20260906101207 | 76 | 167 | 0.0 | 0.0 | 0.00 | 0.00 | 0.00 | 95 | 1015.5 |
| 20260906100702 | 76 | 165 | 0.0 | 0.0 | 0.00 | 0.00 | 0.00 | 95 | 1015.5 |
| 20260906100157 | 76 | 165 | 0.0 | 0.0 | 0.00 | 0.00 | 0.00 | 95 | 1015.5 |
| 20260906095652 | 76 | 165 | 0.0 | 0.0 | 0.00 | 0.00 | 0.00 | 95 | 1015.4 |
| 20260906095147 | 76 | 165 | 0.0 | 0.0 | 0.00 | 0.00 | 0.00 | 95 | 1015.2 |
| 20260906094646 | 76 | 165 | 0.0 | 0.0 | 0.00 | 0.00 | 0.00 | 95 | 1015.4 |
| 20260906094142 | 76 | 164 | 0.0 | 0.0 | 0.00 | 0.00 | 0.00 | 95 | 1015.3 |
| 20260906093638 | 76 | 164 | 0.0 | 0.0 | 0.00 | 0.00 | 0.00 | 95 | 1015.4 |
| 20260906093138 | 76 | 168 | 0.0 | 0.0 | 0.00 | 0.00 | 0.00 | 95 | 1015.2 |
| 20260906092632 | 76 | 175 | 0.0 | 0.0 | 0.00 | 0.00 | 0.00 | 95 | 1015.4 |
| 20260906092127 | 76 | 168 | 0.0 | 1.0 | 0.00 | 0.00 | 0.00 | 95 | 1015.5 |
| 20260906091624 | 76 | 168 | 0.0 | 0.0 | 0.00 | 0.00 | 0.00 | 94 | 1015.3 |
| 20260906091120 | 76 | 168 | 0.0 | 0.0 | 0.00 | 0.00 | 0.00 | 94 | 1015.3 |
| 20260906090615 | 76 | 169 | 0.0 | 0.0 | 0.00 | 0.00 | 0.00 | 94 | 1015.4 |
| 20260906090115 | 76 | 166 | 0.0 | 0.0 | 0.00 | 0.00 | 0.00 | 94 | 1015.2 |
| 20260906085614 | 76 | 165 | 0.0 | 0.0 | 0.00 | 0.00 | 0.00 | 94 | 1015.1 |
| 20260906085108 | 76 | 165 | 0.0 | 0.0 | 0.00 | 0.00 | 0.00 | 94 | 1015.2 |
| 20260906084603 | 76 | 165 | 0.0 | 0.0 | 0.00 | 0.00 | 0.00 | 94 | 1015.2 |
| 20260906084101 | 76 | 164 | 0.0 | 0.0 | 0.00 | 0.00 | 0.00 | 94 | 1015.2 |
| 20260906083558 | 76 | 164 | 0.0 | 0.0 | 0.00 | 0.00 | 0.00 | 94 | 1015.1 |
| 20260906083057 | 76 | 164 | 0.0 | 0.0 | 0.00 | 0.00 | 0.00 | 94 | 1015.2 |
| 20260906082552 | 76 | 164 | 0.0 | 0.0 | 0.00 | 0.00 | 0.00 | 94 | 1015.4 |
| 20260906082048 | 76 | 164 | 0.0 | 0.0 | 0.00 | 0.00 | 0.00 | 94 | 1015.2 |
| 20260906081544 | 76 | 164 | 0.0 | 0.0 | 0.00 | 0.00 | 0.00 | 94 | 1015.3 |
| 20260906081039 | 76 | 164 | 0.0 | 0.0 | 0.00 | 0.00 | 0.00 | 94 | 1015.1 |
| 20260906080536 | 76 | 164 | 0.0 | 0.0 | 0.00 | 0.00 | 0.00 | 94 | 1015.0 |
| 20260906080031 | 76 | 165 | 0.0 | 0.0 | 0.00 | 0.00 | 0.00 | 94 | 1015.0 |
| 20260906075525 | 76 | 164 | 0.0 | 0.0 | 0.00 | 0.00 | 0.00 | 94 | 1015.0 |
| 20260906075020 | 76 | 164 | 0.0 | 0.0 | 0.00 | 0.00 | 0.00 | 94 | 1015.1 |
| 20260906074515 | 76 | 163 | 0.0 | 0.0 | 0.00 | 0.00 | 0.00 | 93 | 1015.0 |
| 20260906074014 | 77 | 163 | 0.0 | 0.0 | 0.00 | 0.00 | 0.00 | 93 | 1014.9 |
| 20260906073509 | 76 | 163 | 0.0 | 0.0 | 0.00 | 0.00 | 0.00 | 93 | 1015.0 |
| 20260906073005 | 77 | 163 | 0.0 | 0.0 | 0.00 | 0.00 | 0.00 | 93 | 1014.9 |
| 20260906072459 | 77 | 163 | 0.0 | 0.0 | 0.00 | 0.00 | 0.00 | 93 | 1014.8 |
| 20260906071955 | 77 | 163 | 0.0 | 0.0 | 0.00 | 0.00 | 0.00 | 93 | 1015.0 |
| 20260906071451 | 77 | 170 | 0.0 | 0.0 | 0.00 | 0.00 | 0.00 | 94 | 1015.0 |
| 20260906070947 | 77 | 179 | 0.0 | 0.0 | 0.00 | 0.00 | 0.00 | 93 | 1014.9 |
| 20260906070443 | 77 | 168 | 0.0 | 0.0 | 0.00 | 0.00 | 0.00 | 93 | 1015.0 |
| 20260906065938 | 77 | 168 | 0.0 | 0.0 | 0.00 | 0.00 | 0.00 | 93 | 1014.9 |
| 20260906065438 | 77 | 170 | 0.0 | 0.0 | 0.00 | 0.00 | 0.00 | 93 | 1015.2 |
| 20260906064933 | 77 | 169 | 0.0 | 0.0 | 0.00 | 0.00 | 0.00 | 93 | 1015.4 |
| 20260906064430 | 77 | 169 | 0.0 | 0.0 | 0.00 | 0.00 | 0.00 | 93 | 1015.3 |
| 20260906063924 | 77 | 168 | 0.0 | 0.0 | 0.00 | 0.00 | 0.00 | 92 | 1015.3 |
| 20260906063419 | 77 | 172 | 0.0 | 0.0 | 0.00 | 0.00 | 0.00 | 92 | 1015.4 |
| 20260906062914 | 78 | 168 | 1.0 | 1.0 | 0.00 | 0.00 | 0.00 | 92 | 1015.1 |
| 20260906062409 | 78 | 170 | 1.0 | 2.0 | 0.00 | 0.00 | 0.00 | 92 | 1015.2 |
| 20260906061904 | 78 | 166 | 0.0 | 0.0 | 0.00 | 0.00 | 0.00 | 92 | 1015.1 |
| 20260906061400 | 77 | 172 | 1.0 | 1.0 | 0.00 | 0.00 | 0.00 | 92 | 1015.0 |
| 20260906060854 | 77 | 174 | 0.0 | 0.0 | 0.00 | 0.00 | 0.00 | 92 | 1015.4 |
| 20260906060352 | 77 | 174 | 2.0 | 2.0 | 0.00 | 0.00 | 0.00 | 92 | 1015.3 |
| 20260906055848 | 77 | 180 | 1.0 | 1.0 | 0.00 | 0.00 | 0.00 | 92 | 1015.5 |
| 20260906055343 | 77 | 165 | 1.0 | 1.0 | 0.00 | 0.00 | 0.00 | 92 | 1015.5 |
| 20260906054838 | 77 | 174 | 1.0 | 1.0 | 0.00 | 0.00 | 0.00 | 93 | 1015.7 |
| 20260906054333 | 77 | 169 | 0.0 | 0.0 | 0.00 | 0.00 | 0.00 | 93 | 1015.5 |
| 20260906053830 | 77 | 175 | 1.0 | 1.0 | 0.00 | 0.00 | 0.00 | 93 | 1015.8 |
| 20260906053325 | 77 | 174 | 0.0 | 1.0 | 0.00 | 0.00 | 0.00 | 93 | 1015.9 |
| 20260906052820 | 77 | 186 | 1.0 | 2.0 | 0.00 | 0.00 | 0.00 | 93 | 1015.9 |
| 20260906052317 | 77 | 167 | 0.0 | 0.0 | 0.00 | 0.00 | 0.00 | 93 | 1016.0 |
| 20260906051814 | 77 | 166 | 0.0 | 0.0 | 0.00 | 0.00 | 0.00 | 93 | 1015.9 |
| 20260906051313 | 77 | 198 | 1.0 | 2.0 | 0.00 | 0.00 | 0.00 | 93 | 1016.1 |
| 20260906050809 | 77 | 219 | 2.0 | 2.0 | 0.00 | 0.00 | 0.00 | 93 | 1016.1 |
| 20260906050304 | 77 | 178 | 2.0 | 2.0 | 0.00 | 0.00 | 0.00 | 93 | 1016.4 |
| 20260906045802 | 77 | 170 | 0.0 | 0.0 | 0.00 | 0.00 | 0.00 | 93 | 1016.6 |
| 20260906045257 | 77 | 176 | 0.0 | 1.0 | 0.00 | 0.00 | 0.00 | 93 | 1016.6 |
| 20260906044754 | 77 | 161 | 0.0 | 0.0 | 0.00 | 0.00 | 0.00 | 93 | 1016.8 |
| 20260906044248 | 77 | 168 | 0.0 | 0.0 | 0.00 | 0.00 | 0.00 | 93 | 1016.6 |
| 20260906043744 | 77 | 178 | 0.0 | 0.0 | 0.00 | 0.00 | 0.00 | 93 | 1016.6 |
| 20260906043240 | 77 | 165 | 0.0 | 0.0 | 0.00 | 0.00 | 0.00 | 93 | 1016.8 |
| 20260906042739 | 77 | 182 | 0.0 | 0.0 | 0.00 | 0.00 | 0.00 | 93 | 1016.7 |
| 20260906042238 | 77 | 195 | 0.0 | 0.0 | 0.00 | 0.00 | 0.00 | 93 | 1016.8 |
| 20260906041734 | 77 | 167 | 0.0 | 0.0 | 0.00 | 0.00 | 0.00 | 93 | 1016.8 |
| 20260906041229 | 77 | 164 | 0.0 | 0.0 | 0.00 | 0.00 | 0.00 | 93 | 1016.9 |
| 20260906040725 | 77 | 173 | 0.0 | 0.0 | 0.00 | 0.00 | 0.00 | 93 | 1016.8 |
| 20260906040219 | 77 | 165 | 0.0 | 0.0 | 0.00 | 0.00 | 0.00 | 93 | 1016.9 |
| 20260906035715 | 77 | 167 | 0.0 | 0.0 | 0.00 | 0.27 | 0.27 | 93 | 1017.0 |
| 20260906035210 | 77 | 159 | 0.0 | 0.0 | 0.00 | 0.27 | 0.27 | 93 | 1016.7 |
| 20260906034704 | 77 | 158 | 0.0 | 0.0 | 0.00 | 0.27 | 0.27 | 93 | 1016.6 |
| 20260906034159 | 77 | 158 | 0.0 | 0.0 | 0.00 | 0.27 | 0.27 | 93 | 1016.9 |
| 20260906033655 | 77 | 159 | 0.0 | 0.0 | 0.00 | 0.27 | 0.27 | 93 | 1016.9 |
| 20260906033156 | 77 | 166 | 0.0 | 0.0 | 0.00 | 0.27 | 0.27 | 93 | 1017.0 |
| 20260906032652 | 77 | 169 | 0.0 | 0.0 | 0.00 | 0.27 | 0.27 | 93 | 1016.7 |
| 20260906032146 | 77 | 170 | 0.0 | 0.0 | 0.00 | 0.27 | 0.27 | 93 | 1016.9 |
| 20260906031642 | 77 | 170 | 0.0 | 0.0 | 0.00 | 0.27 | 0.27 | 93 | 1016.8 |
| 20260906031137 | 77 | 169 | 0.0 | 0.0 | 0.00 | 0.27 | 0.27 | 93 | 1017.0 |
| 20260906030636 | 77 | 170 | 0.0 | 0.0 | 0.00 | 0.27 | 0.27 | 92 | 1017.1 |
| 20260906030132 | 77 | 169 | 0.0 | 0.0 | 0.00 | 0.27 | 0.27 | 93 | 1017.0 |
| 20260906025631 | 77 | 169 | 0.0 | 0.0 | 0.00 | 0.27 | 0.27 | 92 | 1016.7 |
| 20260906025130 | 77 | 170 | 0.0 | 0.0 | 0.00 | 0.27 | 0.27 | 93 | 1017.1 |
| 20260906024625 | 77 | 168 | 0.0 | 0.0 | 0.00 | 0.27 | 0.27 | 92 | 1016.9 |
| 20260906024119 | 78 | 168 | 0.0 | 0.0 | 0.00 | 0.27 | 0.27 | 92 | 1016.7 |
| 20260906023615 | 78 | 163 | 0.0 | 0.0 | 0.00 | 0.27 | 0.27 | 92 | 1016.8 |
| 20260906023109 | 77 | 163 | 0.0 | 0.0 | 0.00 | 0.27 | 0.27 | 92 | 1016.5 |
| 20260906022605 | 77 | 163 | 0.0 | 0.0 | 0.00 | 0.27 | 0.27 | 92 | 1016.6 |
| 20260906022100 | 78 | 160 | 0.0 | 0.0 | 0.00 | 0.27 | 0.27 | 93 | 1016.8 |
| 20260906021556 | 78 | 156 | 0.0 | 0.0 | 0.00 | 0.27 | 0.27 | 93 | 1016.4 |
| 20260906021055 | 78 | 155 | 0.0 | 0.0 | 0.00 | 0.27 | 0.27 | 93 | 1016.8 |
| 20260906020555 | 78 | 165 | 0.0 | 0.0 | 0.00 | 0.27 | 0.27 | 93 | 1016.7 |
| 20260906020054 | 78 | 178 | 0.0 | 0.0 | 0.00 | 0.27 | 0.27 | 93 | 1016.7 |
| 20260906015553 | 77 | 161 | 0.0 | 0.0 | 0.00 | 0.27 | 0.27 | 93 | 1016.6 |
| 20260906015048 | 77 | 163 | 0.0 | 0.0 | 0.00 | 0.27 | 0.27 | 93 | 1016.5 |
| 20260906014548 | 77 | 170 | 0.0 | 0.0 | 0.00 | 0.27 | 0.27 | 93 | 1016.4 |
| 20260906014044 | 78 | 166 | 0.0 | 0.0 | 0.00 | 0.27 | 0.27 | 93 | 1016.4 |
| 20260906013539 | 78 | 161 | 0.0 | 0.0 | 0.00 | 0.27 | 0.27 | 93 | 1016.2 |
| 20260906013034 | 78 | 166 | 0.0 | 0.0 | 0.00 | 0.27 | 0.27 | 93 | 1016.3 |
| 20260906012529 | 78 | 155 | 0.0 | 0.0 | 0.00 | 0.27 | 0.27 | 93 | 1016.3 |
| 20260906012029 | 78 | 155 | 0.0 | 0.0 | 0.00 | 0.27 | 0.27 | 93 | 1016.3 |
| 20260906011525 | 78 | 157 | 0.0 | 0.0 | 0.00 | 0.27 | 0.27 | 93 | 1016.3 |
| 20260906011025 | 78 | 149 | 0.0 | 0.0 | 0.00 | 0.27 | 0.27 | 93 | 1016.2 |
| 20260906010520 | 78 | 157 | 0.0 | 0.0 | 0.00 | 0.27 | 0.27 | 93 | 1016.1 |
| 20260906010017 | 78 | 157 | 0.0 | 0.0 | 0.00 | 0.27 | 0.27 | 93 | 1016.1 |
| 20260906005515 | 78 | 164 | 0.0 | 0.0 | 0.00 | 0.27 | 0.27 | 93 | 1016.0 |
| 20260906005014 | 78 | 155 | 0.0 | 0.0 | 0.00 | 0.27 | 0.27 | 93 | 1015.7 |
| 20260906004509 | 78 | 155 | 0.0 | 0.0 | 0.00 | 0.27 | 0.27 | 92 | 1015.8 |
| 20260906004004 | 78 | 164 | 0.0 | 0.0 | 0.00 | 0.27 | 0.27 | 92 | 1015.5 |
| 20260906003459 | 78 | 164 | 0.0 | 0.0 | 0.00 | 0.27 | 0.27 | 92 | 1015.4 |
| 20260906002954 | 78 | 163 | 0.0 | 0.0 | 0.00 | 0.27 | 0.27 | 92 | 1015.4 |
| 20260906002449 | 78 | 163 | 0.0 | 0.0 | 0.00 | 0.27 | 0.27 | 92 | 1015.4 |
| 20260906001944 | 78 | 164 | 0.0 | 0.0 | 0.00 | 0.27 | 0.27 | 92 | 1015.1 |
| 20260906001440 | 78 | 164 | 0.0 | 0.0 | 0.00 | 0.27 | 0.27 | 92 | 1015.5 |
| 20260906000934 | 78 | 164 | 0.0 | 1.0 | 0.00 | 0.27 | 0.27 | 92 | 1015.4 |
| 20260906000433 | 78 | 166 | 0.0 | 0.0 | 0.00 | 0.27 | 0.27 | 92 | 1015.4 |
| 20260905235924 | 78 | 160 | 0.0 | 0.0 | 0.00 | 0.27 | 0.27 | 92 | 1015.7 |
| 20260905235419 | 79 | 166 | 0.0 | 0.0 | 0.00 | 0.27 | 0.27 | 92 | 1015.6 |
| 20260905234914 | 79 | 163 | 0.0 | 0.0 | 0.00 | 0.27 | 0.27 | 92 | 1015.5 |
| 20260905234409 | 79 | 158 | 0.0 | 0.0 | 0.00 | 0.27 | 0.27 | 91 | 1015.7 |
| 20260905233904 | 79 | 162 | 0.0 | 0.0 | 0.00 | 0.27 | 0.27 | 91 | 1016.0 |
| 20260905233359 | 79 | 161 | 0.0 | 0.0 | 0.00 | 0.27 | 0.27 | 91 | 1016.0 |
| 20260905232858 | 79 | 162 | 0.0 | 0.0 | 0.00 | 0.27 | 0.27 | 91 | 1016.0 |
| 20260905232354 | 80 | 163 | 0.0 | 0.0 | 0.00 | 0.27 | 0.27 | 91 | 1016.1 |
| 20260905231849 | 80 | 145 | 0.0 | 0.0 | 0.00 | 0.27 | 0.27 | 91 | 1016.1 |
| 20260905231344 | 80 | 145 | 0.0 | 0.0 | 0.00 | 0.27 | 0.27 | 91 | 1016.3 |
| 20260905230841 | 80 | 145 | 0.0 | 0.0 | 0.00 | 0.27 | 0.27 | 91 | 1016.1 |
| 20260905230339 | 80 | 146 | 0.0 | 0.0 | 0.00 | 0.27 | 0.27 | 91 | 1016.0 |
| 20260905225838 | 80 | 146 | 0.0 | 0.0 | 0.00 | 0.27 | 0.27 | 91 | 1016.0 |
| 20260905225333 | 80 | 147 | 0.0 | 0.0 | 0.00 | 0.27 | 0.27 | 92 | 1015.9 |
| 20260905224828 | 80 | 153 | 0.0 | 0.0 | 0.00 | 0.27 | 0.27 | 91 | 1015.8 |
| 20260905224324 | 79 | 154 | 0.0 | 0.0 | 0.00 | 0.27 | 0.27 | 91 | 1015.6 |